Location: Cold Norton
(51.6667°N, 0.6667°E)
Time: 01:45:49
(UTC+00:00)

CZ-4C R/B - Pass Details

Date: 18 November 2025
Orbit: 487 x 1493 km, 63.4° (Epoch: 13 December)

Event Time Altitude Azimuth Distance (km) Brightness Sun altitude
Rises 16:54:22 0° 254° (WSW) 2,877 7.4 -7.9°
Reaches altitude 10° 16:56:31 10° 263° (W) 2,083 5.8 -8.3°
Maximum altitude 17:01:00 41° 334° (NNW) 1,133 3.0 -8.9°
Drops below altitude 10° 17:06:45 10° 43° (NE) 2,682 4.3 -9.8°
Enters shadow 17:07:10 - 44° (NE) 2,833 4.4 -9.8°
